[[{"header":{"parameterUnit":"m.s-1","parameterCategory":1,"la1":30.2991,"la2":30.254,"lo1":-89.0895,"lo2":-89.0444,"dy":0.0017,"dx":0.0017,"nx":28,"ny":28,"refTime":"2025-06-20T09:00:00:Z","depth":0,"parameterNumber":2,"parameterNumberName":"U-component_of_WINDS"},"data":[0,0,0,0,0,0,0,0,0,0,0,0,0,0,0,0,0,0,0,0,0,0,0,0,0,0,0,0,0,0,0,0,0,0,0,0,0,0,0,0,0,0,0,0,0,0,0,0,0,0,0,0,0,0,0,0,0,0,0.1305,0.1306,0,0.1407,0.1408,0.1409,0.1461,0.1461,0.1461,0.1461,0.1565,0.1568,0.157,0,0,0,0,0,0,0,0,0,0,0,0,0,0.1155,0.1157,0.1305,0.1306,0.1307,0.1407,0.1408,0.141,0.1461,0.1461,0.1461,0.1461,0.1564,0.1567,0.1571,0,0,0,0,0,0,0,0,0,0,0,0,0,0.1234,0.1158,0.1305,0.1345,0.135,0.1407,0.1408,0.141,0.1461,0.1461,0.1461,0.1461,0.1563,0.1567,0.1571,0.1595,0,0,0.1584,0.1585,0,0,0,0,0,0,0,0,0.123,0.124,0.1338,0.1343,0.1348,0.1422,0.1393,0.1472,0.1461,0.1419,0.1461,0.1461,0.1517,0.1525,0.1544,0.16,0.1604,0.1584,0.1586,0.1588,0.1589,0,0,0,0,0,0,0,0.1224,0.1236,0.1345,0.1339,0.1345,0.1358,0.137,0.1408,0.1466,0.1423,0.1427,0.1438,0.152,0.154,0.1547,0.1606,0.1584,0.1587,0.159,0.1592,0.1688,0.1688,0,0,0,0,0,0,0.1212,0.1231,0.1342,0.1348,0.1288,0.1361,0.1374,0.1398,0.1466,0.1477,0.1438,0.144,0.1533,0.1542,0.1551,0.1584,0.1588,0.1592,0.1594,0.1687,0.1688,0.1688,0,0,0,0,0,0,0.1209,0.1222,0.1338,0.1291,0.1307,0.1363,0.139,0.14,0.142,0.1478,0.1488,0.1448,0.1533,0.1545,0.1584,0.1588,0.1594,0.1597,0.1687,0.1688,0.1688,0.165,0,0,0,0,0,0,0.1204,0.122,0.123,0.1291,0.1309,0.1369,0.139,0.1402,0.1427,0.1431,0.149,0.15,0.1534,0.1578,0.1588,0.1594,0.1601,0.1687,0.1687,0.1688,0.1651,0.1649,0.1647,0,0,0,0,0,0.1199,0.1215,0.123,0.1243,0.1322,0.137,0.138,0.142,0.1427,0.1437,0.1475,0.1498,0.1586,0.1581,0.1593,0.1601,0.1687,0.1687,0.1688,0.1652,0.1649,0.1647,0,0,0,0,0,0,0.1152,0.1223,0.1241,0.1277,0.1317,0.1378,0.1392,0.1415,0.1454,0.1456,0.1503,0.1516,0.1551,0.158,0.1573,0.1628,0.1639,0.1642,0.1608,0.1606,0.1604,0.1596,0.1604,0,0,0,0,0,0.1146,0.1179,0.1239,0.1265,0.1284,0.1335,0.1357,0.1384,0.1427,0.1444,0.1484,0.1525,0.1562,0.1585,0.1623,0.1656,0.167,0.1667,0.1665,0.1663,0.1664,0.1685,0.1684,0.1689,0.1689,0.1688,0,0,0.1134,0.1177,0.1195,0.1257,0.1291,0.1324,0.1349,0.1382,0.1407,0.1449,0.1489,0.152,0.1568,0.1604,0.1622,0.1629,0.1666,0.1663,0.1661,0.1664,0.1685,0.1684,0.1684,0.1689,0.1689,0.1689,0,0,0.1129,0.1164,0.119,0.1224,0.1276,0.1309,0.1315,0.1374,0.1396,0.1436,0.1469,0.1499,0.1562,0.1596,0.1621,0.1629,0.1652,0.164,0.1629,0.1648,0.1648,0.1648,0.1652,0.1652,0.1642,0.1641,0.1641,0,0.1107,0.1158,0.1201,0.1233,0.1259,0.13,0.1327,0.1358,0.1418,0.1436,0.1443,0.1523,0.1559,0.1604,0.1606,0.1625,0.1634,0.1633,0.1645,0.1645,0.1646,0.165,0.1651,0.164,0.164,0.164,0.164,0,0.1129,0.1164,0.1179,0.1237,0.1266,0.1295,0.1342,0.1366,0.1391,0.1423,0.1465,0.1509,0.1556,0.1569,0.1593,0.1618,0.1621,0.1635,0.1648,0.1643,0.1647,0.1649,0.1637,0.1638,0.1638,0.1639,0,0,0.1096,0.1179,0.1184,0.1211,0.1271,0.1299,0.133,0.1377,0.1397,0.1437,0.1465,0.1518,0.1532,0.1561,0.159,0.1607,0.1611,0.162,0.1622,0.1617,0.1642,0.163,0.1631,0.1627,0.1627,0.1628,0.1638,0,0.11,0.1158,0.1198,0.1241,0.1274,0.1313,0.1341,0.138,0.1412,0.1445,0.148,0.1517,0.1533,0.1551,0.1569,0.1607,0.1617,0.1607,0.1653,0.1655,0.164,0.1634,0.1621,0.1629,0.164,0.164,0.164,0,0.1111,0.1152,0.1198,0.1255,0.1271,0.1295,0.1341,0.1372,0.1418,0.144,0.1473,0.1502,0.1537,0.1547,0.1596,0.1588,0.1609,0.1631,0.1632,0.1638,0.1647,0.164,0.1632,0.1633,0.1643,0.1643,0.1643,0,0.1083,0.1149,0.1186,0.1208,0.1276,0.1292,0.1321,0.1367,0.1393,0.1434,0.1451,0.1495,0.1519,0.1553,0.1594,0.1597,0.1639,0.1651,0.1659,0.1657,0.1666,0.1665,0.1661,0.1679,0.1679,0.1679,0.1679,0,0.1083,0.111,0.1174,0.1196,0.1228,0.1274,0.1303,0.1336,0.1377,0.1407,0.1443,0.147,0.1522,0.1556,0.1588,0.1624,0.1635,0.1654,0.1662,0.1651,0.1648,0.1665,0.1666,0.1679,0.1679,0.1679,0.1679,0,0.1057,0.1101,0.1144,0.1205,0.1221,0.1241,0.1294,0.1317,0.1352,0.1388,0.14,0.1453,0.1494,0.1539,0.1595,0.1616,0.1651,0.1663,0.1636,0.164,0.1645,0.1644,0.1653,0.1657,0.1671,0.1671,0.1671,0,0.1054,0.1076,0.114,0.1162,0.1191,0.1226,0.1253,0.1299,0.1326,0.1381,0.1398,0.1442,0.148,0.1544,0.1588,0.1631,0.1644,0.1644,0.1651,0.1639,0.1645,0.1643,0.1646,0.1642,0.1642,0.1641,0.1641,0,0.1044,0.1065,0.1102,0.1148,0.1179,0.1217,0.1256,0.1273,0.1327,0.1355,0.1398,0.1427,0.1485,0.1528,0.1577,0.1607,0.1633,0.1639,0.1643,0.1632,0.1615,0.1625,0.163,0.1638,0.1639,0.1639,0.1639,0.1639,0.103,0.1051,0.11,0.1141,0.1175,0.1211,0.1237,0.1274,0.1311,0.1362,0.1387,0.143,0.1477,0.1545,0.1575,0.1609,0.1617,0.1623,0.1624,0.1625,0.1622,0.161,0.1618,0.1619,0.1619,0.1619,0.1619,0,0.1022,0.1055,0.1092,0.1147,0.1179,0.1201,0.1246,0.1272,0.1309,0.1351,0.1388,0.1438,0.148,0.1528,0.1574,0.1592,0.1605,0.1603,0.1602,0.1609,0.1613,0.1605,0.1591,0.1591,0.1591,0.1591,0.1591,0.1591,0.1021,0.1059,0.1086,0.1141,0.1175,0.1218,0.1242,0.1276,0.1309,0.1363,0.1399,0.143,0.1475,0.1524,0.1565,0.1578,0.1593,0.1587,0.1603,0.1606,0.1608,0.161,0.1603,0.159,0.159,0.1596,0.1596,0.1596]},{"header":{"parameterUnit":"m.s-1","parameterCategory":1,"la1":30.2991,"la2":30.254,"lo1":-89.0895,"lo2":-89.0444,"dy":0.0017,"dx":0.0017,"nx":28,"ny":28,"refTime":"2025-06-20T09:00:00:Z","depth":0,"parameterNumber":3,"parameterNumberName":"V-component_of_WINDS"},"data":[0,0,0,0,0,0,0,0,0,0,0,0,0,0,0,0,0,0,0,0,0,0,0,0,0,0,0,0,0,0,0,0,0,0,0,0,0,0,0,0,0,0,0,0,0,0,0,0,0,0,0,0,0,0,0,0,0,0,0.1405,0.1404,0,0.1281,0.128,0.1278,0.116,0.1158,0.1157,0.1155,0.1031,0.1029,0.1027,0,0,0,0,0,0,0,0,0,0,0,0,0,0.154,0.1538,0.1405,0.1403,0.1402,0.1281,0.128,0.1278,0.116,0.1158,0.1157,0.1155,0.1031,0.1029,0.1027,0,0,0,0,0,0,0,0,0,0,0,0,0,0.1456,0.1538,0.1405,0.1329,0.132,0.1282,0.128,0.1277,0.1161,0.1158,0.1156,0.1154,0.1032,0.1029,0.1027,0.1054,0,0,0.1018,0.1017,0,0,0,0,0,0,0,0,0.1461,0.1451,0.1341,0.1334,0.1325,0.1234,0.1281,0.1203,0.1161,0.1221,0.1155,0.1153,0.11,0.1092,0.1073,0.1048,0.1043,0.1018,0.1016,0.1015,0.1014,0,0,0,0,0,0,0,0.1467,0.1455,0.1356,0.134,0.133,0.13,0.1286,0.1266,0.1175,0.1216,0.1207,0.1194,0.1095,0.1077,0.107,0.1041,0.1018,0.1015,0.1013,0.1012,0.1031,0.1033,0,0,0,0,0,0,0.1484,0.1461,0.136,0.1352,0.1388,0.13,0.1284,0.1265,0.1175,0.1159,0.1196,0.1189,0.1082,0.1073,0.1065,0.1091,0.1015,0.1012,0.101,0.1029,0.1032,0.1034,0,0,0,0,0,0,0.1487,0.1476,0.1365,0.1404,0.1388,0.13,0.128,0.1264,0.1245,0.116,0.1143,0.1194,0.108,0.1069,0.1057,0.1085,0.1011,0.1008,0.1026,0.103,0.1033,0.1144,0,0,0,0,0,0,0.1492,0.1478,0.1488,0.1405,0.1386,0.136,0.1282,0.1263,0.124,0.123,0.1153,0.1138,0.1078,0.1062,0.1054,0.1079,0.1006,0.1023,0.1028,0.1032,0.1137,0.115,0.1161,0,0,0,0,0,0.1497,0.1525,0.1489,0.1477,0.1396,0.1362,0.1351,0.128,0.1243,0.1252,0.1197,0.1141,0.1083,0.1062,0.1052,0.1077,0.1021,0.1026,0.1031,0.1132,0.1148,0.1161,0,0,0,0,0,0,0.1614,0.1512,0.1472,0.1473,0.1427,0.1342,0.1351,0.1299,0.1263,0.1255,0.1169,0.1152,0.1151,0.1112,0.1091,0.1098,0.1044,0.1048,0.1124,0.1138,0.115,0.116,0.1003,0,0,0,0,0,0.164,0.1619,0.1532,0.1542,0.152,0.144,0.1422,0.1371,0.132,0.13,0.1244,0.1197,0.1168,0.1151,0.1119,0.113,0.1112,0.1142,0.1154,0.1165,0.1169,0.1172,0.1184,0.105,0.105,0.105,0,0,0.1693,0.1635,0.1628,0.1564,0.1522,0.1503,0.1424,0.1408,0.1393,0.1298,0.1283,0.1241,0.1182,0.1182,0.1179,0.115,0.1202,0.1171,0.118,0.1179,0.1178,0.1191,0.1202,0.1054,0.1053,0.1053,0,0,0.1781,0.1735,0.1738,0.1697,0.1634,0.158,0.1581,0.1502,0.147,0.1454,0.1381,0.1362,0.1314,0.1275,0.1249,0.132,0.1267,0.1312,0.1377,0.138,0.1391,0.14,0.1425,0.1435,0.1317,0.1317,0.1317,0,0.1856,0.1824,0.1746,0.1734,0.1708,0.1618,0.1621,0.1585,0.1515,0.15,0.1467,0.1404,0.1358,0.1347,0.1365,0.1346,0.1344,0.1322,0.1395,0.1404,0.1411,0.1434,0.1444,0.1323,0.1322,0.1321,0.1321,0,0.192,0.1899,0.1908,0.1842,0.1817,0.1812,0.1733,0.1717,0.1668,0.1617,0.1601,0.1543,0.1498,0.1491,0.1443,0.1473,0.1457,0.1411,0.1356,0.1431,0.1451,0.146,0.1331,0.1329,0.1327,0.1326,0,0,0.208,0.1969,0.1974,0.1942,0.1865,0.1847,0.1838,0.1793,0.1781,0.1735,0.1725,0.1685,0.1642,0.1612,0.1559,0.1562,0.1622,0.1515,0.1513,0.1538,0.1651,0.1687,0.1698,0.1585,0.1587,0.1588,0.1656,0,0.2156,0.2133,0.2062,0.2061,0.2041,0.1955,0.1946,0.1898,0.185,0.1826,0.1772,0.1746,0.169,0.1672,0.1671,0.1615,0.1644,0.1609,0.1576,0.1576,0.1595,0.1709,0.1747,0.1814,0.1663,0.1665,0.1666,0,0.2242,0.2201,0.2198,0.212,0.2109,0.2103,0.2054,0.2032,0.1975,0.194,0.1906,0.1846,0.1831,0.1778,0.1757,0.1735,0.1717,0.1687,0.1688,0.1683,0.1627,0.1708,0.1834,0.1845,0.1677,0.1677,0.1676,0,0.236,0.2304,0.2294,0.227,0.2179,0.2176,0.2138,0.2079,0.2056,0.2014,0.1998,0.1955,0.1932,0.19,0.183,0.1798,0.1816,0.1758,0.1787,0.1789,0.1796,0.1797,0.1922,0.1783,0.1783,0.1783,0.1783,0,0.2453,0.2455,0.2346,0.2341,0.234,0.2257,0.2258,0.2212,0.216,0.2144,0.2066,0.2053,0.1961,0.1937,0.1882,0.1872,0.1862,0.1834,0.1819,0.1841,0.1845,0.1829,0.1823,0.1785,0.1785,0.1784,0.1784,0,0.2586,0.2513,0.2497,0.2411,0.2389,0.2393,0.2319,0.2311,0.2257,0.2237,0.2228,0.2144,0.2112,0.2038,0.1986,0.1949,0.1954,0.1927,0.1973,0.1964,0.1998,0.1997,0.2118,0.213,0.1984,0.1985,0.1986,0,0.2651,0.265,0.2563,0.2547,0.2511,0.2485,0.2461,0.2378,0.2356,0.229,0.229,0.2251,0.2216,0.2168,0.2102,0.2062,0.2034,0.2079,0.2028,0.205,0.2036,0.2037,0.2037,0.2092,0.2094,0.2095,0.2097,0,0.2774,0.2737,0.2705,0.2659,0.2632,0.2592,0.2548,0.2539,0.2446,0.2425,0.239,0.2363,0.2309,0.2271,0.222,0.2181,0.2124,0.2113,0.2118,0.2141,0.2168,0.2155,0.2006,0.2111,0.211,0.2109,0.2108,0.2107,0.2875,0.287,0.2808,0.2774,0.2731,0.2692,0.2679,0.2623,0.2592,0.2542,0.2494,0.2464,0.2406,0.2332,0.2296,0.2271,0.2242,0.2249,0.2251,0.2255,0.2264,0.2171,0.2261,0.2261,0.226,0.226,0.226,0,0.2995,0.295,0.2919,0.2859,0.2832,0.2779,0.2727,0.2708,0.2682,0.2632,0.2598,0.2558,0.2521,0.2452,0.2408,0.2402,0.2374,0.2393,0.2394,0.2386,0.2292,0.2293,0.2416,0.2416,0.2416,0.2416,0.2416,0.2416,0.3054,0.3043,0.2998,0.2965,0.2919,0.2889,0.2864,0.2827,0.2786,0.2744,0.2712,0.2667,0.2609,0.256,0.2523,0.2504,0.2492,0.252,0.2492,0.2407,0.2392,0.2378,0.2378,0.2518,0.2518,0.2587,0.2588,0.2589]}]]